Terug naar catalogus

COSMOS 1579

ActiefMilitairLEO
NORAD 15085·PAYLOAD·🇷🇺 Russia

Gelanceerd Jun 29, 1984 vanaf Baikonur Cosmodrome

Loading…

Volgende Passages (komende 24 uur)

TLE

VersSource: Space-Track

Epoch: Sep 14, 2026, 05:49 UTC

1 15085U 84069A   26257.24276171 -.00000077  00000-0  10111-4 0  9991
2 15085  65.0496 213.0106 0049455 343.5015  16.4435 13.86223534138127

Volg COSMOS 1579 in realtime met AllMySat

Download on the App Store